Change the Weather History Date:

Sunday, October 14, 2012

  Actual Average (KMOT) Record (KMOT)
Temperature  
Mean Temperature 47 °F 46 °F  
Max Temperature 64 °F 56 °F 83 °F (1988)
Min Temperature 30 °F 35 °F 11 °F (1937)
Degree Days  
Heating Degree Days 18 20  
Month to date heating degree days 235  
Since 1 July heating degree days 555  
Cooling Degree Days 0 0  
Month to date cooling degree days 0  
Year to date cooling degree days 444  
Moisture  
Dew Point 35 °F    
Average Humidity 74    
Maximum Humidity 100    
Minimum Humidity 37    
Precipitation  
Precipitation 0.00 in 0.04 in 1.24 in (1975)
Month to date precipitation 0.61  
Year to date precipitation 15.51  
Sea Level Pressure  
Sea Level Pressure 29.93 in    
Wind  
Wind Speed 4 mph (WSW)    
Max Wind Speed 16 mph    
Max Gust Speed 17 mph    
Visibility 10 miles    
Events Rain    
T = Trace of Precipitation, MM = Missing Value Source: NWS Daily Summary

Daily Weather History Graph

Daily Weather History Graph

Search for Another Location

Airport or City:

Trip Planner

Search our weather history database for the weather conditions in past years. The results will help you decide how hot, cold, wet, or windy it might be!

Date:

Astronomy

Oct. 14, 2012 Rise Set
Actual Time 8:08 AM CDT 7:01 PM CDT
Civil Twilight 7:37 AM CDT 7:32 PM CDT
Nautical Twilight 7:00 AM CDT 8:09 PM CDT
Astronomical Twilight 6:24 AM CDT 8:45 PM CDT
Moon 7:09 AM CDT (10/14) 6:21 PM CDT (10/14)
Length of Visible Light 11h 55m
Length of Day
10h 52m
Waning Crescent, 1% of the Moon is Illuminated
Oct 14
Waning Crescent
Oct 15
New
Oct 21
First Quarter
Oct 29
Full
Nov 6
Last Quarter

Hourly Weather History & Observations

Time (CDT) Temp. Windchill Dew Point Humidity Pressure Visibility Wind Dir Wind Speed Gust Speed Precip Events Conditions
12:15 AM 35.6 °F 32.8 °F 32.0 °F 87% 29.95 in 10.0 mi North 3.5 mph - N/A   Clear
12:35 AM 35.6 °F 31.7 °F 32.0 °F 87% 29.95 in 10.0 mi North 4.6 mph - N/A   Clear
12:55 AM 35.6 °F 30.7 °F 32.0 °F 87% 29.94 in 10.0 mi North 5.8 mph - N/A   Clear
1:15 AM 33.8 °F 30.8 °F 32.0 °F 93% 29.94 in 10.0 mi North 3.5 mph - N/A   Clear
1:35 AM 35.6 °F 30.7 °F 32.0 °F 87% 29.94 in 10.0 mi North 5.8 mph - N/A   Clear
1:55 AM 33.8 °F 30.8 °F 32.0 °F 93% 29.95 in 10.0 mi SW 3.5 mph - N/A   Clear
2:15 AM 32.0 °F 27.5 °F 30.2 °F 93% 29.95 in 10.0 mi WSW 4.6 mph - N/A   Clear
2:35 AM 32.0 °F 28.7 °F 30.2 °F 93% 29.95 in 10.0 mi West 3.5 mph - N/A   Scattered Clouds
2:55 AM 30.2 °F - 28.4 °F 93% 29.94 in 10.0 mi Calm Calm - N/A   Overcast
3:15 AM 32.0 °F - 32.0 °F 100% 29.95 in 10.0 mi Calm Calm - N/A   Mostly Cloudy
3:35 AM 32.0 °F - 32.0 °F 100% 29.95 in 10.0 mi Calm Calm - N/A   Partly Cloudy
3:55 AM 30.2 °F 26.7 °F 28.4 °F 93% 29.96 in 10.0 mi WSW 3.5 mph - N/A   Mostly Cloudy
4:15 AM 32.0 °F 27.5 °F 32.0 °F 100% 29.96 in 10.0 mi WNW 4.6 mph - N/A   Overcast
4:35 AM 32.0 °F - 32.0 °F 100% 29.96 in 10.0 mi Calm Calm - N/A   Mostly Cloudy
4:55 AM 32.0 °F - 32.0 °F 100% 29.97 in 10.0 mi Calm Calm - N/A   Overcast
5:15 AM 33.8 °F 30.8 °F 32.0 °F 93% 29.97 in 10.0 mi SSW 3.5 mph - N/A   Overcast
5:35 AM 33.8 °F 26.4 °F 32.0 °F 93% 29.95 in 10.0 mi SSE 9.2 mph - N/A Rain Light Rain
5:55 AM 33.8 °F 29.6 °F 32.0 °F 93% 29.96 in 10.0 mi WNW 4.6 mph - N/A   Overcast
6:15 AM 32.0 °F 28.7 °F 32.0 °F 100% 29.97 in 10.0 mi WNW 3.5 mph - N/A   Mostly Cloudy
6:35 AM 35.6 °F - 33.8 °F 93% 29.96 in 10.0 mi Calm Calm - N/A   Mostly Cloudy
6:55 AM 33.8 °F - 32.0 °F 93% 29.97 in 10.0 mi Calm Calm - N/A   Mostly Cloudy
7:15 AM 35.6 °F 31.7 °F 35.6 °F 100% 29.97 in 10.0 mi SW 4.6 mph - N/A   Mostly Cloudy
7:35 AM 33.8 °F 29.6 °F 32.0 °F 93% 29.97 in 10.0 mi SW 4.6 mph - N/A   Overcast
7:55 AM 32.0 °F - 32.0 °F 100% 29.97 in 10.0 mi Calm Calm - N/A   Partly Cloudy
8:15 AM 32.0 °F - 32.0 °F 100% 29.97 in 10.0 mi Calm Calm - N/A   Clear
8:35 AM 32.0 °F 28.7 °F 32.0 °F 100% 29.97 in 10.0 mi ENE 3.5 mph - N/A   Clear
8:55 AM 32.0 °F - 32.0 °F 100% 29.97 in 10.0 mi Calm Calm - N/A   Clear
9:15 AM 35.6 °F - 35.6 °F 100% 29.97 in 10.0 mi Calm Calm - N/A   Mostly Cloudy
9:35 AM 39.2 °F - 37.4 °F 93% 29.98 in 10.0 mi Calm Calm - N/A   Scattered Clouds
9:55 AM 41.0 °F - 37.4 °F 87% 29.97 in 10.0 mi Calm Calm - N/A   Clear
10:15 AM 44.6 °F 42.2 °F 37.4 °F 76% 29.97 in 10.0 mi WSW 4.6 mph - N/A   Clear
10:35 AM 46.4 °F 44.3 °F 37.4 °F 71% 29.97 in 10.0 mi SW 4.6 mph - N/A   Clear
10:55 AM 48.2 °F - 39.2 °F 71% 29.97 in 10.0 mi SSW 4.6 mph - N/A   Clear
11:15 AM 53.6 °F - 39.2 °F 58% 29.97 in 10.0 mi SW 6.9 mph - N/A   Clear
11:35 AM 53.6 °F - 39.2 °F 58% 29.97 in 10.0 mi WSW 6.9 mph - N/A   Clear
11:55 AM 55.4 °F - 39.2 °F 54% 29.96 in 10.0 mi WSW 8.1 mph - N/A   Scattered Clouds
12:15 PM 55.4 °F - 39.2 °F 54% 29.95 in 10.0 mi WSW 8.1 mph - N/A   Mostly Cloudy
12:55 PM 59.0 °F - 37.4 °F 45% 29.94 in 10.0 mi South 8.1 mph - N/A   Partly Cloudy
1:15 PM 60.8 °F - 37.4 °F 42% 29.93 in 10.0 mi WSW 6.9 mph - N/A   Partly Cloudy
1:35 PM 62.6 °F - 37.4 °F 39% 29.93 in 10.0 mi SW 9.2 mph - N/A   Scattered Clouds
1:55 PM 62.6 °F - 37.4 °F 39% 29.92 in 10.0 mi WSW 6.9 mph - N/A   Partly Cloudy
2:15 PM 62.6 °F - 37.4 °F 39% 29.92 in 10.0 mi WSW 12.7 mph - N/A   Clear
3:15 PM 62.6 °F - 39.2 °F 42% 29.91 in 10.0 mi West 11.5 mph - N/A   Clear
3:35 PM 62.6 °F - 39.2 °F 42% 29.90 in 10.0 mi West 11.5 mph 16.1 mph N/A   Clear
3:55 PM 64.4 °F - 39.2 °F 40% 29.90 in 10.0 mi West 11.5 mph 17.3 mph N/A   Clear
4:15 PM 64.4 °F - 37.4 °F 37% 29.90 in 10.0 mi West 16.1 mph - N/A   Clear
4:35 PM 64.4 °F - 37.4 °F 37% 29.90 in 10.0 mi West 11.5 mph - N/A   Clear
4:55 PM 64.4 °F - 37.4 °F 37% 29.90 in 10.0 mi WNW 12.7 mph 16.1 mph N/A   Clear
5:15 PM 64.4 °F - 37.4 °F 37% 29.90 in 10.0 mi WNW 11.5 mph 17.3 mph N/A   Clear
5:35 PM 62.6 °F - 37.4 °F 39% 29.90 in 10.0 mi WNW 10.4 mph - N/A   Clear
5:55 PM 60.8 °F - 37.4 °F 42% 29.89 in 10.0 mi West 6.9 mph - N/A   Clear
6:15 PM 60.8 °F - 37.4 °F 42% 29.90 in 10.0 mi West 4.6 mph - N/A   Clear
6:35 PM 57.2 °F - 35.6 °F 44% 29.89 in 10.0 mi WNW 4.6 mph - N/A   Clear
6:55 PM 53.6 °F - 35.6 °F 51% 29.89 in 10.0 mi West 4.6 mph - N/A   Clear
7:15 PM 48.2 °F - 35.6 °F 62% 29.89 in 10.0 mi SW 4.6 mph - N/A   Clear
7:35 PM 48.2 °F - 35.6 °F 62% 29.89 in 10.0 mi WSW 3.5 mph - N/A   Clear
7:55 PM 46.4 °F 44.3 °F 35.6 °F 66% 29.89 in 10.0 mi WSW 4.6 mph - N/A   Clear
8:15 PM 44.6 °F 41.4 °F 35.6 °F 71% 29.89 in 10.0 mi SW 5.8 mph - N/A   Clear
8:35 PM 42.8 °F 41.1 °F 35.6 °F 76% 29.89 in 10.0 mi SW 3.5 mph - N/A   Clear
8:55 PM 41.0 °F 38.0 °F 33.8 °F 76% 29.89 in 10.0 mi SW 4.6 mph - N/A   Clear
9:15 PM 41.0 °F 39.0 °F 35.6 °F 81% 29.89 in 10.0 mi South 3.5 mph - N/A   Clear
9:35 PM 39.2 °F - 33.8 °F 81% 29.88 in 10.0 mi Calm Calm - N/A   Clear
9:55 PM 41.0 °F 39.0 °F 33.8 °F 76% 29.87 in 10.0 mi SW 3.5 mph - N/A   Clear
10:15 PM 41.0 °F - 32.0 °F 70% 29.86 in 10.0 mi Calm Calm - N/A   Clear
10:35 PM 41.0 °F 39.0 °F 33.8 °F 76% 29.86 in 10.0 mi SW 3.5 mph - N/A   Clear
10:55 PM 39.2 °F 37.0 °F 33.8 °F 81% 29.85 in 10.0 mi SW 3.5 mph - N/A   Clear
11:15 PM 39.2 °F - 33.8 °F 81% 29.85 in 10.0 mi Calm Calm - N/A   Scattered Clouds
11:35 PM 41.0 °F - 33.8 °F 76% 29.85 in 10.0 mi Calm Calm - N/A   Mostly Cloudy
11:55 PM 41.0 °F 38.0 °F 35.6 °F 81% 29.84 in 10.0 mi SW 4.6 mph - N/A   Overcast